User: anonymous   Login
Location: Epalinges
(46.5518°N, 6.6683°E)
Time: 10:02:55
(UTC+00:00)
Language:

ERBS - Orbit

View from above orbital plane
View from above orbital plane
View from above satellite
View from above satellite

Ground track
Ground track

The orbit data is extracted from the following two-line orbital elements,

1 15354U 84108B   21259.44658282  .00005899  00000-0  96731-4 0  9998
2 15354  57.0030 249.0543 0007320 165.8278 194.2988 15.53984660 38347
Epoch (UTC): 16 September 2021 10:43:04
Eccentricity: 0.0007320
inclination: 57.0030°
perigee height: 400 km
apogee height: 410 km
right ascension of ascending node: 249.0543°
argument of perigee: 165.8278°
revolutions per day: 15.53984660
mean anomaly at epoch: 194.2988°
orbit number at epoch: 3834

The dashed part of the orbit path shows where the satellite is in the earth's shadow,  

DLR